Date String (YYYY-MM-DD hh:mm:ss) UTC,Instrument flags,Ambient pressure (hPa),Sample flow (lpm),Bypass flow (lpm),Sample temperature (°C),Ambient temperature (°C),ASC tube jacket temperature (°C),LED temperature (°C),Box temperature (°C),Sample RH (%),Span deviation,Mass concentration (μg/m³),Mass concentration (μg/m³),Mass concentration (μg/m³)
DateTimeUTC,F1_M11,P_M11,Q1_M11,Q2_M11,T1_M11,T2_M11,T3_M11,T4_M11,T5_M11,U1_M11,ZSPAN_M11,X0_M11,X2_M11,X1_M11
2022-12-20 10:00:00,,0829.1,5.03,0.00,22.0,21.3,00.0,30.8,23.9,06.6,0000.0,0014.98,0005.67,0004.70
2022-12-20 10:01:00,,0829.1,4.98,0.00,22.1,22.1,00.0,30.8,24.1,06.6,-000.0,0014.78,0005.74,0004.73
2022-12-20 10:02:00,,0829.1,5.02,0.00,22.2,21.9,00.0,30.9,24.1,06.6,0000.0,0015.20,0005.77,0004.75
2022-12-20 10:03:00,,0829.0,4.98,0.00,22.2,21.6,00.0,30.9,24.1,06.4,0000.0,0014.94,0005.75,0004.75
2022-12-20 10:04:00,,0828.9,5.02,0.00,22.2,21.3,00.0,30.9,24.0,06.4,0000.0,0015.06,0005.74,0004.76
2022-12-20 10:05:00,,0828.9,4.97,0.00,22.2,21.1,00.0,30.9,24.0,06.4,0000.0,0014.42,0005.74,0004.76
2022-12-20 10:06:00,,0829.0,5.03,0.00,22.2,21.0,00.0,30.9,24.0,06.4,0000.0,0014.19,0005.70,0004.74
2022-12-20 10:07:00,,0829.0,4.95,0.00,22.1,20.9,00.0,30.9,23.9,06.6,0000.0,0013.73,0005.73,0004.76
2022-12-20 10:08:00,,0829.0,5.03,0.00,22.1,20.8,00.0,30.9,23.9,07.0,0000.0,0013.91,0005.87,0004.86
2022-12-20 10:09:00,,0828.9,5.03,0.00,22.1,20.7,00.0,30.9,23.9,07.0,0000.0,0014.12,0005.96,0004.96
2022-12-20 10:10:00,,0828.8,4.96,0.00,22.1,20.7,00.0,30.9,23.8,06.9,0000.0,0014.22,0006.00,0005.04
2022-12-20 10:11:00,,0828.9,5.02,0.00,22.1,20.6,00.0,30.9,23.8,06.6,0000.0,0014.32,0006.02,0005.03
2022-12-20 10:12:00,,0829.2,4.99,0.00,22.1,20.6,00.0,30.9,23.8,06.6,0000.0,0014.33,0006.05,0005.05
2022-12-20 10:13:00,,0829.1,4.99,0.00,22.0,20.5,00.0,30.9,23.8,06.5,0002.1,0013.68,0006.04,0005.04
2022-12-20 10:14:00,,0828.8,5.02,0.00,22.0,20.5,00.0,30.9,23.8,06.5,0003.9,0013.79,0006.05,0005.04
2022-12-20 10:15:00,,0828.9,4.98,0.00,22.0,20.4,00.0,30.9,23.8,06.6,0000.4,0013.84,0006.07,0005.05
2022-12-20 10:16:00,,0828.9,5.00,0.00,22.0,20.4,00.0,30.9,23.8,06.6,0000.0,0014.44,0006.11,0005.05
2022-12-20 10:17:00,,0829.0,5.03,0.00,22.0,20.4,00.0,30.9,23.7,06.6,0000.0,0014.94,0006.17,0005.07
2022-12-20 10:18:00,,0828.9,4.96,0.00,22.0,20.7,00.0,30.8,23.8,06.5,0000.0,0014.82,0006.15,0005.06
2022-12-20 10:19:00,,0828.9,5.04,0.00,22.1,21.6,00.0,30.8,24.0,06.4,0000.0,0014.26,0005.94,0004.93
2022-12-20 10:20:00,,0828.9,4.97,0.00,22.2,22.0,00.0,30.8,24.1,06.4,0000.0,0014.01,0005.82,0004.80
2022-12-20 10:21:00,,0828.9,4.99,0.00,22.2,21.8,00.0,30.9,24.1,06.5,0000.2,0013.62,0005.71,0004.71
2022-12-20 10:22:00,,0828.8,5.01,0.00,22.2,21.5,00.0,30.9,24.1,06.5,0000.3,0013.74,0005.68,0004.71
2022-12-20 10:23:00,,0829.2,5.00,0.00,22.2,21.2,00.0,30.9,24.0,06.5,0000.0,0013.76,0005.63,0004.68
2022-12-20 10:24:00,,0829.1,4.99,0.00,22.1,21.0,00.0,30.9,23.9,06.6,0000.3,0013.68,0005.64,0004.68
2022-12-20 10:25:00,,0829.1,5.03,0.00,22.1,20.8,00.0,30.9,23.9,06.6,0000.2,0013.42,0005.64,0004.68
2022-12-20 10:26:00,,0829.0,4.96,0.00,22.1,20.7,00.0,30.9,23.9,06.6,0001.3,0012.84,0005.66,0004.66
2022-12-20 10:27:00,,0829.2,5.03,0.00,22.1,20.6,00.0,30.9,23.8,06.7,0001.5,0011.56,0005.59,0004.66
2022-12-20 10:28:00,,0829.3,4.96,0.00,22.1,20.5,00.0,30.9,23.8,06.6,0001.3,0011.21,0005.52,0004.62
2022-12-20 10:29:00,,0829.0,5.02,0.00,22.0,20.5,00.0,30.9,23.8,06.5,0001.2,0011.08,0005.45,0004.59
2022-12-20 10:30:00,,0828.9,5.03,0.00,22.0,20.4,00.0,30.9,23.8,06.6,0001.3,0011.09,0005.46,0004.60
2022-12-20 10:31:00,,0828.8,4.95,0.00,22.0,20.3,00.0,30.9,23.7,06.6,0001.5,0010.86,0005.45,0004.62
2022-12-20 10:32:00,,0829.2,5.03,0.00,22.0,20.3,00.0,30.9,23.7,06.5,0002.2,0010.81,0005.44,0004.60
2022-12-20 10:33:00,,0829.3,4.99,0.00,21.9,20.3,00.0,30.9,23.7,06.5,0002.1,0011.34,0005.46,0004.59
2022-12-20 10:34:00,,0829.2,4.99,0.00,21.9,20.4,00.0,30.9,23.7,06.4,0001.8,0011.50,0005.42,0004.54
2022-12-20 10:35:00,,0829.0,5.02,0.00,22.0,21.1,00.0,30.8,23.9,06.4,0000.7,0011.74,0005.35,0004.51
2022-12-20 10:36:00,,0828.9,4.98,0.00,22.1,21.9,00.0,30.8,24.1,06.4,0000.1,0011.52,0005.30,0004.49
2022-12-20 10:37:00,,0829.0,4.99,0.00,22.1,22.0,00.0,30.8,24.1,06.3,0000.5,0011.66,0005.23,0004.45
2022-12-20 10:38:00,,0829.2,5.01,0.00,22.2,21.6,00.0,30.9,24.1,06.3,0000.1,0012.75,0005.21,0004.43
2022-12-20 10:39:00,,0829.2,4.98,0.00,22.1,21.3,00.0,30.9,24.0,06.4,0002.4,0012.64,0005.27,0004.45
2022-12-20 10:40:00,,0829.1,5.01,0.00,22.1,20.8,00.0,30.9,23.8,06.6,0001.1,0012.90,0005.38,0004.51
2022-12-20 10:41:00,,0829.1,5.03,0.00,22.0,20.2,00.0,30.9,23.6,06.6,0000.0,0013.16,0005.43,0004.55
2022-12-20 10:42:00,,0828.9,4.95,0.00,21.9,19.7,00.0,30.9,23.3,06.5,0000.0,0013.29,0005.47,0004.57
2022-12-20 10:43:00,,0829.2,5.02,0.00,21.8,19.5,00.0,30.8,23.3,06.5,0000.0,0014.21,0005.52,0004.58
2022-12-20 10:44:00,,0829.3,5.03,0.00,21.7,19.6,00.0,30.8,23.3,06.5,0000.0,0013.75,0005.53,0004.59
2022-12-20 10:45:00,,0829.4,4.99,0.00,21.7,19.7,00.0,30.8,23.3,06.5,0000.0,0013.67,0005.53,0004.60
2022-12-20 10:46:00,,0828.8,4.96,0.00,21.7,19.8,00.0,30.8,23.3,06.5,0000.0,0013.39,0005.54,0004.61
2022-12-20 10:47:00,,0828.7,5.02,0.00,21.7,19.8,00.0,30.7,23.3,06.4,0000.0,0013.99,0005.56,0004.62
2022-12-20 10:48:00,,0829.1,5.02,0.00,21.7,20.4,00.0,30.7,23.4,06.4,0000.0,0013.77,0005.62,0004.64
2022-12-20 10:49:00,,0829.1,4.97,0.00,21.8,21.4,00.0,30.6,23.7,06.4,0000.0,0012.52,0005.62,0004.64
2022-12-20 10:50:00,,0828.7,5.01,0.00,21.9,21.9,00.0,30.7,23.9,06.3,0000.0,0012.45,0005.54,0004.63
2022-12-20 10:51:00,,0829.1,4.99,0.00,21.9,21.5,00.0,30.7,23.8,06.3,0000.0,0012.73,0005.45,0004.58
2022-12-20 10:52:00,,0829.2,5.01,0.00,21.9,21.0,00.0,30.7,23.6,06.3,0000.0,0013.25,0005.40,0004.52
2022-12-20 10:53:00,,0829.2,5.00,0.00,21.8,20.6,00.0,30.7,23.5,06.3,0000.7,0013.68,0005.34,0004.47
2022-12-20 10:54:00,,0828.9,5.03,0.00,21.8,20.2,00.0,30.7,23.4,06.3,0001.5,0013.25,0005.30,0004.45
2022-12-20 10:55:00,,0828.8,4.95,0.00,21.7,19.8,00.0,30.7,23.2,06.4,0002.1,0012.93,0005.27,0004.44
2022-12-20 10:56:00,,0829.1,5.04,0.00,21.6,19.5,00.0,30.7,23.1,06.5,0002.5,0013.16,0005.29,0004.45
2022-12-20 10:57:00,,0829.1,5.03,0.00,21.6,19.4,00.0,30.6,23.1,06.5,0001.6,0013.64,0005.32,0004.46
2022-12-20 10:58:00,,0829.4,4.96,0.00,21.5,19.3,00.0,30.6,23.0,06.6,0001.0,0013.63,0005.34,0004.48
2022-12-20 10:59:00,,0829.3,5.01,0.00,21.5,19.7,00.0,30.5,23.1,06.6,0000.0,0013.72,0005.36,0004.51
